| time (UTC) | temp C | wind direction | speed KPH | gust KPH | rain 1hr cm | rain 24hr cm | rain mn cm | humidity % | barometer mb |
| 20260504204949 | 25 | 208 | 9.7 | 14.5 | 0.00 | 0.00 | 0.00 | 45 | 1000.3 |
| 20260504204447 | 25 | 209 | 8.0 | 11.3 | 0.00 | 0.00 | 0.00 | 45 | 1000.3 |
| 20260504203945 | 25 | 4 | 6.4 | 11.3 | 0.00 | 0.00 | 0.00 | 45 | 1000.4 |
| 20260504203443 | 25 | 267 | 8.0 | 20.9 | 0.00 | 0.00 | 0.00 | 46 | 1000.5 |
| 20260504202938 | 25 | 204 | 4.8 | 20.9 | 0.00 | 0.00 | 0.00 | 45 | 1000.3 |
| 20260504202435 | 25 | 276 | 4.8 | 12.9 | 0.00 | 0.00 | 0.00 | 44 | 1000.2 |
| 20260504201932 | 25 | 272 | 6.4 | 9.7 | 0.00 | 0.00 | 0.00 | 44 | 1000.2 |
| 20260504201430 | 26 | 2 | 8.0 | 11.3 | 0.00 | 0.00 | 0.00 | 45 | 1000.4 |
| 20260504200927 | 25 | 197 | 11.3 | 17.7 | 0.00 | 0.00 | 0.00 | 46 | 1000.6 |
| 20260504200424 | 25 | 275 | 6.4 | 12.9 | 0.00 | 0.00 | 0.00 | 46 | 1000.3 |
| 20260504195921 | 25 | 178 | 4.8 | 9.7 | 0.00 | 0.00 | 0.00 | 48 | 1000.7 |
| 20260504195416 | 25 | 285 | 4.8 | 8.0 | 0.00 | 0.00 | 0.00 | 46 | 1000.8 |
| 20260504194913 | 25 | 38 | 3.2 | 11.3 | 0.00 | 0.00 | 0.00 | 45 | 1001.0 |
| 20260504194409 | 25 | 140 | 3.2 | 11.3 | 0.00 | 0.00 | 0.00 | 45 | 1000.9 |
| 20260504193905 | 25 | 308 | 3.2 | 9.7 | 0.00 | 0.00 | 0.00 | 46 | 1001.2 |
| 20260504193403 | 25 | 300 | 8.0 | 17.7 | 0.00 | 0.00 | 0.00 | 46 | 1001.2 |
| 20260504192901 | 25 | 215 | 3.2 | 8.0 | 0.00 | 0.00 | 0.00 | 48 | 1001.1 |
| 20260504192358 | 25 | 232 | 4.8 | 4.8 | 0.00 | 0.00 | 0.00 | 47 | 1001.1 |
| 20260504191856 | 25 | 303 | 9.7 | 11.3 | 0.00 | 0.00 | 0.00 | 48 | 1001.3 |
| 20260504191354 | 25 | 209 | 4.8 | 11.3 | 0.00 | 0.00 | 0.00 | 50 | 1001.4 |
| 20260504190849 | 24 | 265 | 8.0 | 11.3 | 0.00 | 0.00 | 0.00 | 50 | 1001.7 |
| 20260504190345 | 23 | 181 | 9.7 | 14.5 | 0.00 | 0.00 | 0.00 | 50 | 1001.8 |
| 20260504185842 | 24 | 21 | 6.4 | 17.7 | 0.00 | 0.00 | 0.00 | 52 | 1001.9 |
| 20260504185339 | 24 | 183 | 8.0 | 11.3 | 0.00 | 0.00 | 0.00 | 52 | 1002.1 |
| 20260504184835 | 23 | 172 | 6.4 | 9.7 | 0.00 | 0.00 | 0.00 | 52 | 1002.0 |
| 20260504184331 | 24 | 348 | 4.8 | 11.3 | 0.00 | 0.00 | 0.00 | 52 | 1002.0 |
| 20260504183827 | 23 | 226 | 4.8 | 8.0 | 0.00 | 0.00 | 0.00 | 53 | 1002.2 |
| 20260504183325 | 24 | 146 | 6.4 | 12.9 | 0.00 | 0.00 | 0.00 | 52 | 1002.2 |
| 20260504182822 | 23 | 288 | 4.8 | 11.3 | 0.00 | 0.00 | 0.00 | 53 | 1002.2 |
| 20260504182320 | 24 | 184 | 4.8 | 17.7 | 0.00 | 0.00 | 0.00 | 51 | 1002.1 |
| 20260504181816 | 25 | 234 | 8.0 | 12.9 | 0.00 | 0.00 | 0.00 | 49 | 1002.2 |
| 20260504181314 | 23 | 337 | 1.6 | 3.2 | 0.00 | 0.00 | 0.00 | 53 | 1002.3 |
| 20260504180813 | 23 | 202 | 6.4 | 9.7 | 0.00 | 0.00 | 0.00 | 52 | 1002.3 |
| 20260504180311 | 23 | 335 | 4.8 | 14.5 | 0.00 | 0.00 | 0.00 | 53 | 1002.3 |
| 20260504175808 | 24 | 206 | 4.8 | 4.8 | 0.00 | 0.00 | 0.00 | 53 | 1002.4 |
| 20260504175305 | 23 | 296 | 1.6 | 9.7 | 0.00 | 0.00 | 0.00 | 51 | 1002.4 |
| 20260504174804 | 23 | 248 | 6.4 | 17.7 | 0.00 | 0.00 | 0.00 | 50 | 1002.6 |
| 20260504174300 | 23 | 262 | 3.2 | 9.7 | 0.00 | 0.00 | 0.00 | 53 | 1002.5 |
| 20260504173757 | 23 | 189 | 3.2 | 11.3 | 0.00 | 0.00 | 0.00 | 51 | 1002.7 |
| 20260504173254 | 23 | 175 | 4.8 | 9.7 | 0.00 | 0.00 | 0.00 | 51 | 1002.6 |
| 20260504172750 | 22 | 320 | 1.6 | 14.5 | 0.00 | 0.00 | 0.00 | 52 | 1002.6 |
| 20260504172247 | 23 | 221 | 8.0 | 12.9 | 0.00 | 0.00 | 0.00 | 49 | 1002.9 |
| 20260504171743 | 23 | 263 | 8.0 | 12.9 | 0.00 | 0.00 | 0.00 | 49 | 1003.1 |
| 20260504171241 | 23 | 227 | 1.6 | 12.9 | 0.00 | 0.00 | 0.00 | 50 | 1003.0 |
| 20260504170738 | 23 | 271 | 4.8 | 9.7 | 0.00 | 0.00 | 0.00 | 47 | 1003.2 |
| 20260504170235 | 22 | 295 | 6.4 | 9.7 | 0.00 | 0.00 | 0.00 | 48 | 1003.1 |
| 20260504160153 | 22 | 197 | 3.2 | 8.0 | 0.00 | 0.00 | 0.00 | 48 | 1004.0 |
| 20260504151121 | 20 | 151 | 8.0 | 12.9 | 0.00 | 0.00 | 0.00 | 53 | 1004.6 |
| 20260504150618 | 20 | 300 | 3.2 | 11.3 | 0.00 | 0.00 | 0.00 | 54 | 1004.5 |
| 20260504150115 | 20 | 213 | 3.2 | 8.0 | 0.00 | 0.00 | 0.00 | 56 | 1004.9 |
| 20260504141044 | 17 | 173 | 4.8 | 8.0 | 0.00 | 0.00 | 0.00 | 63 | 1005.1 |
| 20260504140540 | 17 | 241 | 1.6 | 3.2 | 0.00 | 0.00 | 0.00 | 65 | 1005.2 |
| 20260504130505 | 15 | 202 | 1.6 | 4.8 | 0.00 | 0.00 | 0.00 | 69 | 1005.5 |
| 20260504110352 | 8 | 359 | 0.0 | 1.6 | 0.00 | 0.00 | 0.00 | 90 | 1005.9 |
| 20260504100309 | 8 | 328 | 0.0 | 1.6 | 0.00 | 0.00 | 0.00 | 90 | 1005.4 |
| 20260504081703 | 8 | 334 | 0.0 | 1.6 | 0.00 | 0.00 | 0.00 | 87 | 1005.8 |
| 20260504081159 | 8 | 346 | 1.6 | 1.6 | 0.00 | 0.00 | 0.00 | 88 | 1005.8 |
| 20260504080655 | 8 | 344 | 0.0 | 1.6 | 0.00 | 0.00 | 0.00 | 87 | 1005.9 |
| 20260504080152 | 8 | 340 | 0.0 | 0.0 | 0.00 | 0.00 | 0.00 | 87 | 1005.6 |
| 20260504070120 | 10 | 261 | 0.0 | 1.6 | 0.00 | 0.00 | 0.00 | 83 | 1006.7 |
| 20260504050508 | 10 | 317 | 0.0 | 1.6 | 0.00 | 0.00 | 0.00 | 83 | 1008.0 |
| 20260504050005 | 10 | 342 | 0.0 | 1.6 | 0.00 | 0.00 | 0.00 | 83 | 1008.1 |
| 20260504045501 | 10 | 286 | 0.0 | 0.0 | 0.00 | 0.00 | 0.00 | 83 | 1007.9 |
| 20260504044957 | 10 | 224 | 0.0 | 1.6 | 0.00 | 0.00 | 0.00 | 82 | 1008.1 |
| 20260504044455 | 9 | 38 | 0.0 | 1.6 | 0.00 | 0.00 | 0.00 | 83 | 1007.9 |
| 20260504043952 | 10 | 116 | 0.0 | 0.0 | 0.00 | 0.00 | 0.00 | 82 | 1008.3 |
| 20260504043449 | 10 | 123 | 1.6 | 4.8 | 0.00 | 0.00 | 0.00 | 82 | 1008.1 |
| 20260504042946 | 10 | 199 | 1.6 | 3.2 | 0.00 | 0.00 | 0.00 | 82 | 1008.3 |
| 20260504042443 | 10 | 325 | 0.0 | 1.6 | 0.00 | 0.00 | 0.00 | 82 | 1008.2 |
| 20260504041940 | 10 | 296 | 0.0 | 3.2 | 0.00 | 0.00 | 0.00 | 82 | 1008.0 |
| 20260504041436 | 9 | 281 | 0.0 | 3.2 | 0.00 | 0.00 | 0.00 | 83 | 1008.1 |
| 20260504040932 | 9 | 324 | 1.6 | 3.2 | 0.00 | 0.00 | 0.00 | 83 | 1008.0 |
| 20260504040430 | 10 | 236 | 1.6 | 3.2 | 0.00 | 0.00 | 0.00 | 83 | 1008.4 |
| 20260504035925 | 10 | 307 | 0.0 | 1.6 | 0.00 | 0.00 | 0.00 | 82 | 1008.4 |
| 20260504035423 | 10 | 297 | 0.0 | 1.6 | 0.00 | 0.00 | 0.00 | 81 | 1008.2 |
| 20260504034920 | 10 | 303 | 0.0 | 1.6 | 0.00 | 0.00 | 0.00 | 81 | 1008.6 |
| 20260504034417 | 10 | 253 | 0.0 | 3.2 | 0.00 | 0.00 | 0.00 | 81 | 1008.6 |
| 20260504033914 | 10 | 267 | 0.0 | 3.2 | 0.00 | 0.00 | 0.00 | 80 | 1008.5 |
| 20260504033412 | 10 | 180 | 4.8 | 4.8 | 0.00 | 0.00 | 0.00 | 80 | 1008.4 |
| 20260504032909 | 10 | 290 | 1.6 | 3.2 | 0.00 | 0.00 | 0.00 | 81 | 1008.4 |
| 20260504032406 | 10 | 180 | 4.8 | 4.8 | 0.00 | 0.00 | 0.00 | 83 | 1008.3 |
| 20260504031902 | 10 | 271 | 0.0 | 1.6 | 0.00 | 0.00 | 0.00 | 84 | 1008.2 |
| 20260504031359 | 10 | 219 | 1.6 | 1.6 | 0.00 | 0.00 | 0.00 | 84 | 1008.5 |
| 20260504030856 | 10 | 293 | 0.0 | 1.6 | 0.00 | 0.00 | 0.00 | 85 | 1008.6 |
| 20260504030353 | 10 | 233 | 0.0 | 1.6 | 0.00 | 0.00 | 0.00 | 85 | 1008.5 |
| 20260504025849 | 10 | 316 | 0.0 | 1.6 | 0.00 | 0.00 | 0.00 | 86 | 1008.7 |
| 20260504025346 | 10 | 332 | 0.0 | 1.6 | 0.00 | 0.00 | 0.00 | 86 | 1008.7 |
| 20260504024843 | 10 | 304 | 1.6 | 3.2 | 0.00 | 0.00 | 0.00 | 86 | 1008.4 |
| 20260504024339 | 10 | 224 | 0.0 | 3.2 | 0.00 | 0.00 | 0.00 | 86 | 1008.5 |
| 20260504023836 | 10 | 291 | 0.0 | 4.8 | 0.00 | 0.00 | 0.00 | 86 | 1008.5 |
| 20260504023333 | 10 | 302 | 0.0 | 1.6 | 0.00 | 0.00 | 0.00 | 87 | 1008.5 |
| 20260504022829 | 10 | 196 | 1.6 | 4.8 | 0.00 | 0.00 | 0.00 | 87 | 1008.5 |
| 20260504022326 | 10 | 74 | 3.2 | 4.8 | 0.00 | 0.00 | 0.00 | 87 | 1008.4 |
| 20260504021822 | 10 | 258 | 0.0 | 3.2 | 0.00 | 0.00 | 0.00 | 87 | 1008.3 |
| 20260504021320 | 10 | 208 | 1.6 | 3.2 | 0.00 | 0.00 | 0.00 | 87 | 1008.2 |
| 20260504020817 | 10 | 357 | 0.0 | 4.8 | 0.00 | 0.00 | 0.00 | 86 | 1008.4 |
| 20260504020313 | 10 | 222 | 0.0 | 4.8 | 0.00 | 0.00 | 0.00 | 86 | 1008.6 |
| 20260504015809 | 10 | 172 | 4.8 | 4.8 | 0.00 | 0.00 | 0.00 | 86 | 1008.5 |
| 20260504015306 | 10 | 350 | 1.6 | 3.2 | 0.00 | 0.00 | 0.00 | 86 | 1008.5 |
| 20260504014802 | 10 | 76 | 1.6 | 4.8 | 0.00 | 0.00 | 0.00 | 86 | 1008.5 |
| 20260504014258 | 10 | 274 | 0.0 | 1.6 | 0.00 | 0.00 | 0.00 | 85 | 1008.5 |
| 20260504013756 | 10 | 305 | 0.0 | 3.2 | 0.00 | 0.00 | 0.00 | 85 | 1008.6 |
| 20260504013253 | 10 | 252 | 1.6 | 3.2 | 0.00 | 0.00 | 0.00 | 85 | 1008.6 |
| 20260504012749 | 10 | 69 | 0.0 | 3.2 | 0.00 | 0.00 | 0.00 | 84 | 1008.7 |
| 20260504012248 | 10 | 199 | 0.0 | 3.2 | 0.00 | 0.00 | 0.00 | 84 | 1008.8 |
| 20260504011744 | 10 | 321 | 0.0 | 1.6 | 0.00 | 0.00 | 0.00 | 84 | 1008.6 |
| 20260504011241 | 10 | 221 | 1.6 | 3.2 | 0.00 | 0.00 | 0.00 | 84 | 1008.8 |
| 20260504010737 | 10 | 236 | 1.6 | 4.8 | 0.00 | 0.00 | 0.00 | 84 | 1008.7 |
| 20260504010233 | 10 | 225 | 1.6 | 3.2 | 0.00 | 0.00 | 0.00 | 83 | 1008.7 |
| 20260504005730 | 10 | 257 | 1.6 | 3.2 | 0.00 | 0.00 | 0.00 | 83 | 1008.9 |
| 20260504005227 | 10 | 212 | 0.0 | 3.2 | 0.00 | 0.00 | 0.00 | 83 | 1008.6 |
| 20260504004724 | 11 | 231 | 1.6 | 1.6 | 0.00 | 0.00 | 0.00 | 82 | 1008.7 |
| 20260504004221 | 11 | 224 | 1.6 | 3.2 | 0.00 | 0.00 | 0.00 | 82 | 1008.8 |
| 20260504003718 | 11 | 222 | 3.2 | 3.2 | 0.00 | 0.00 | 0.00 | 81 | 1008.9 |
| 20260504003215 | 11 | 191 | 1.6 | 3.2 | 0.00 | 0.00 | 0.00 | 80 | 1008.6 |
| 20260504002712 | 11 | 230 | 1.6 | 3.2 | 0.00 | 0.00 | 0.00 | 80 | 1008.9 |
| 20260504002209 | 11 | 234 | 1.6 | 3.2 | 0.00 | 0.00 | 0.00 | 79 | 1008.8 |
| 20260504001707 | 11 | 209 | 4.8 | 4.8 | 0.00 | 0.00 | 0.00 | 78 | 1009.0 |
| 20260504001203 | 11 | 180 | 4.8 | 4.8 | 0.00 | 0.00 | 0.00 | 77 | 1008.9 |
| 20260504000700 | 12 | 216 | 1.6 | 3.2 | 0.00 | 0.00 | 0.00 | 77 | 1009.0 |
| 20260504000157 | 12 | 202 | 1.6 | 4.8 | 0.00 | 0.00 | 0.00 | 76 | 1009.0 |
| 20260503235655 | 12 | 29 | 3.2 | 4.8 | 0.00 | 0.00 | 0.00 | 74 | 1009.1 |
| 20260503235151 | 12 | 226 | 3.2 | 9.7 | 0.00 | 0.00 | 0.00 | 73 | 1009.1 |
| 20260503234649 | 12 | 234 | 1.6 | 9.7 | 0.00 | 0.00 | 0.00 | 73 | 1009.1 |
| 20260503234148 | 12 | 266 | 0.0 | 3.2 | 0.00 | 0.00 | 0.00 | 72 | 1009.4 |
| 20260503233644 | 12 | 213 | 3.2 | 4.8 | 0.00 | 0.00 | 0.00 | 72 | 1009.3 |
| 20260503233140 | 12 | 227 | 1.6 | 14.5 | 0.00 | 0.00 | 0.00 | 71 | 1009.3 |
| 20260503232637 | 12 | 193 | 6.4 | 8.0 | 0.00 | 0.00 | 0.00 | 70 | 1009.5 |
| 20260503232134 | 12 | 218 | 4.8 | 4.8 | 0.00 | 0.00 | 0.00 | 71 | 1009.6 |
| 20260503231632 | 13 | 221 | 3.2 | 4.8 | 0.00 | 0.00 | 0.00 | 70 | 1009.6 |
| 20260503231128 | 13 | 43 | 8.0 | 9.7 | 0.00 | 0.00 | 0.00 | 69 | 1009.7 |
| 20260503230625 | 13 | 195 | 6.4 | 11.3 | 0.00 | 0.00 | 0.00 | 69 | 1009.8 |
| 20260503230122 | 13 | 176 | 8.0 | 11.3 | 0.00 | 0.00 | 0.00 | 68 | 1009.8 |
| 20260503225620 | 13 | 259 | 1.6 | 3.2 | 0.00 | 0.00 | 0.00 | 69 | 1009.8 |
| 20260503225119 | 12 | 25 | 6.4 | 9.7 | 0.00 | 0.00 | 0.00 | 69 | 1009.9 |
| 20260503224617 | 12 | 323 | 1.6 | 8.0 | 0.00 | 0.00 | 0.00 | 70 | 1010.0 |
| 20260503224115 | 12 | 309 | 3.2 | 9.7 | 0.00 | 0.00 | 0.00 | 69 | 1009.9 |
| 20260503223613 | 12 | 272 | 1.6 | 9.7 | 0.00 | 0.00 | 0.00 | 70 | 1010.0 |
| 20260503223108 | 13 | 254 | 4.8 | 9.7 | 0.00 | 0.00 | 0.00 | 69 | 1010.0 |
| 20260503222606 | 13 | 219 | 4.8 | 4.8 | 0.00 | 0.00 | 0.00 | 70 | 1010.2 |
| 20260503222104 | 12 | 170 | 4.8 | 8.0 | 0.00 | 0.00 | 0.00 | 71 | 1010.1 |
| 20260503221602 | 12 | 182 | 4.8 | 9.7 | 0.00 | 0.00 | 0.00 | 72 | 1010.4 |
| 20260503221059 | 12 | 189 | 3.2 | 8.0 | 0.00 | 0.00 | 0.00 | 71 | 1010.4 |
| 20260503220555 | 12 | 177 | 3.2 | 8.0 | 0.00 | 0.00 | 0.00 | 72 | 1010.4 |
| 20260503220052 | 12 | 185 | 4.8 | 4.8 | 0.00 | 0.00 | 0.00 | 73 | 1010.9 |
| 20260503215549 | 12 | 285 | 4.8 | 9.7 | 0.00 | 0.00 | 0.00 | 74 | 1010.3 |
| 20260503215046 | 12 | 216 | 1.6 | 8.0 | 0.00 | 0.00 | 0.00 | 75 | 1010.8 |
| 20260503214544 | 11 | 350 | 3.2 | 9.7 | 0.00 | 0.00 | 0.00 | 75 | 1010.7 |
| 20260503214041 | 11 | 183 | 3.2 | 4.8 | 0.00 | 0.00 | 0.00 | 75 | 1010.7 |
| 20260503213539 | 11 | 224 | 1.6 | 3.2 | 0.00 | 0.00 | 0.00 | 77 | 1010.8 |
| 20260503213035 | 11 | 238 | 1.6 | 3.2 | 0.00 | 0.00 | 0.00 | 77 | 1011.0 |
| 20260503212533 | 10 | 16 | 1.6 | 3.2 | 0.00 | 0.00 | 0.00 | 77 | 1010.9 |
| 20260503212030 | 10 | 247 | 1.6 | 3.2 | 0.00 | 0.00 | 0.00 | 77 | 1011.1 |
| 20260503211527 | 10 | 185 | 3.2 | 8.0 | 0.00 | 0.00 | 0.00 | 76 | 1011.2 |
| 20260503211023 | 10 | 276 | 1.6 | 3.2 | 0.00 | 0.00 | 0.00 | 77 | 1011.3 |
| 20260503210520 | 10 | 340 | 3.2 | 14.5 | 0.00 | 0.00 | 0.00 | 76 | 1011.4 |
| 20260503210015 | 10 | 249 | 4.8 | 8.0 | 0.00 | 0.00 | 0.00 | 75 | 1011.4 |
| 20260503205512 | 11 | 255 | 1.6 | 4.8 | 0.00 | 0.00 | 0.00 | 75 | 1011.5 |
| 20260503205009 | 11 | 235 | 1.6 | 11.3 | 0.00 | 0.00 | 0.00 | 74 | 1011.4 |